Nantucket, MA

4:53 AM EDT on March 26, 2017 (GMT -0400)
Nantucket Memorial

Weather History for KACK - November, 2011

Change the Weather History Date:

Sunday, November 6, 2011

  Actual Average Record
Temperature  
Mean Temperature 40 °F -  
Max Temperature 52 °F 53 °F 67 °F (1961)
Min Temperature 28 °F 40 °F 28 °F (1967)
Degree Days  
Heating Degree Days 25    
Moisture  
Dew Point 34 °F    
Average Humidity 72    
Maximum Humidity 89    
Minimum Humidity 52    
Precipitation  
Precipitation 0.00 in - - ()
Sea Level Pressure  
Sea Level Pressure 30.47 in    
Wind  
Wind Speed 5 mph (SW)    
Max Wind Speed 15 mph    
Max Gust Speed -    
Visibility 10 miles    
Events      
Averages and records for this station are not official NWS values.
T = Trace of Precipitation, MM = Missing Value Source: NWS Daily Summary

Daily Weather History Graph

Daily Weather History Graph

Search for Another Location

Airport or City:

Trip Planner

Search our weather history database for the weather conditions in past years. The results will help you decide how hot, cold, wet, or windy it might be!

Date:

Astronomy

Nov. 06, 2011 Rise Set
Actual Time 6:17 AM EST 4:30 PM EST
Civil Twilight 5:48 AM EST 4:59 PM EST
Nautical Twilight 5:15 AM EST 5:31 PM EST
Astronomical Twilight 4:43 AM EST 6:04 PM EST
Moon 2:14 PM EST (11/6) 2:18 AM EST (11/6)
Length of Visible Light 11h 10m
Length of Day
10h 12m
Waxing Gibbous, 85% of the Moon is Illuminated
Nov 6
Waxing Gibbous
Nov 10
Full
Nov 18
Last Quarter
Nov 25
New
Dec 2
First Quarter

Hourly Weather History & Observations

Time (EST) Temp. Windchill Dew Point Humidity Pressure Visibility Wind Dir Wind Speed Gust Speed Precip Events Conditions
12:53 AM 33.1 °F - 28.9 °F 85% 30.49 in 10.0 mi Calm Calm - N/A   Clear
1:53 AM 34.0 °F 31.0 °F 28.9 °F 82% 30.49 in 10.0 mi East 3.5 mph - N/A   Clear
1:53 AM 28.9 °F - 26.1 °F 89% 30.49 in 10.0 mi Calm Calm - N/A   Clear
2:53 AM 30.0 °F - 26.1 °F 85% 30.49 in 10.0 mi Calm Calm - N/A   Clear
3:53 AM 30.0 °F - 27.0 °F 88% 30.48 in 10.0 mi Calm Calm - N/A   Clear
4:53 AM 30.9 °F - 28.0 °F 89% 30.50 in 10.0 mi Calm Calm - N/A   Clear
5:53 AM 30.0 °F - 27.0 °F 88% 30.50 in 10.0 mi Calm Calm - N/A   Clear
6:53 AM 30.0 °F - 27.0 °F 88% 30.51 in 10.0 mi Calm Calm - N/A   Clear
7:53 AM 45.0 °F - 39.0 °F 80% 30.52 in 10.0 mi Calm Calm - N/A   Clear
8:53 AM 48.0 °F - 33.1 °F 56% 30.53 in 10.0 mi WSW 4.6 mph - N/A   Clear
9:53 AM 48.9 °F - 33.1 °F 54% 30.53 in 10.0 mi SSW 6.9 mph - N/A   Clear
10:53 AM 51.1 °F - 34.0 °F 52% 30.52 in 10.0 mi SW 9.2 mph - N/A   Clear
11:53 AM 51.1 °F - 35.1 °F 54% 30.49 in 10.0 mi SW 13.8 mph - N/A   Clear
12:53 PM 51.1 °F - 35.1 °F 54% 30.47 in 10.0 mi SW 12.7 mph - N/A   Clear
1:53 PM 52.0 °F - 36.0 °F 54% 30.45 in 10.0 mi SW 13.8 mph - N/A   Clear
2:53 PM 51.8 °F - 35.6 °F 54% 30.44 in 10.0 mi SW 13.8 mph - N/A   Clear
3:53 PM 48.9 °F - 37.0 °F 64% 30.43 in 10.0 mi SW 13.8 mph - N/A   Clear
4:53 PM 48.0 °F - 37.9 °F 68% 30.43 in 10.0 mi SW 13.8 mph - N/A   Clear
5:53 PM 48.0 °F - 39.0 °F 71% 30.43 in 10.0 mi SW 12.7 mph - N/A   Clear
6:53 PM 48.9 °F - 39.9 °F 71% 30.42 in 10.0 mi SW 12.7 mph - N/A   Clear
7:53 PM 48.9 °F - 41.0 °F 74% 30.41 in 10.0 mi SW 15.0 mph - N/A   Clear
8:53 PM 48.9 °F - 42.1 °F 77% 30.42 in 10.0 mi SW 12.7 mph - N/A   Clear
9:53 PM 48.9 °F - 42.1 °F 77% 30.40 in 10.0 mi SW 12.7 mph - N/A   Clear
10:53 PM 50.0 °F - 44.1 °F 80% 30.39 in 10.0 mi SW 13.8 mph - N/A   Clear